Location: Coal Rock
(53.4500°N, 4.5500°W)
Time: 14:53:41
(UTC+00:00)

Daily predictions for brighter satellites

Satellite Brightness Start Highest point End
(mag) Time Altitude Azimuth Time Altitude Azimuth Time Altitude Azimuth
Cosmos 2315 Rocket 4.1 19:25:41 10° S 19:32:02 83° E 19:38:27 10° NNE
Aureole 3 4.2 19:28:52 10° S 19:33:39 61° E 19:39:46 10° NNE
Cosmos 1544 Rocket 4.2 19:30:18 10° SSW 19:34:42 63° WNW 19:39:09 10° N
STARLINK-1224 3.6 19:31:10 10° W 19:35:20 84° S 19:39:29 10° E
IRIDIUM 103 4.4 19:30:32 10° N 19:35:45 63° E 19:40:55 10° SSE
Cosmos 1825 Rocket 3.7 19:33:31 10° N 19:37:53 54° ENE 19:42:10 10° SSE
Cosmos 1328 4.4 19:34:07 10° N 19:37:54 38° ENE 19:41:40 10° SE
CZ-4 R/B 4.2 19:35:56 10° SW 19:38:53 21° W 19:41:52 10° NW
STARLINK-1225 3.6 19:36:11 10° W 19:40:20 85° S 19:44:30 10° E
Cosmos 1703 3.7 19:39:31 10° N 19:43:20 44° ENE 19:47:08 10° SSE
STARLINK-1230 3.6 19:41:09 10° W 19:45:18 85° S 19:49:28 10° E
Cosmos 1943 Rocket 3.3 19:42:15 10° NW 19:47:28 44° WSW 19:52:43 10° S
Cosmos 2369 Rocket 3.0 19:43:55 10° NW 19:49:29 54° WSW 19:54:58 10° S
Abrixas rocket 3.1 19:47:16 10° WSW 19:49:54 30° S 19:52:19 12° ESE
STARLINK-1243 3.6 19:46:05 10° W 19:50:15 86° S 19:54:25 10° E
Cosmos 1758 Rocket 3.5 19:46:20 10° N 19:50:44 82° E 19:55:02 10° SSE
Cosmos 2074 Rocket 4.0 19:44:26 10° N 19:50:46 79° ENE 19:57:04 10° SSE
COSMOS 2455 3.3 19:45:00 10° NW 19:50:54 51° NE 19:56:39 11° ESE
Cosmos 1437 2.6 19:50:09 10° NNW 19:53:12 86° WSW 19:56:13 10° S
SPOT 3 Rocket 3.6 19:48:04 10° SSE 19:53:14 66° ENE 19:58:25 10° NNW
Cosmos 921 Rocket 3.8 19:49:47 10° N 19:53:37 33° ENE 19:57:12 11° ESE
IRIDIUM 106 4.3 19:48:48 10° N 19:54:04 85° E 19:59:18 10° S
CZ-2C R/B 4.3 19:49:57 10° NNE 19:54:24 39° E 19:58:46 10° SSE
STARLINK-1236 3.6 19:51:06 10° W 19:55:15 86° S 19:59:25 10° E
Cosmos 1953 Rocket 3.7 19:53:49 10° N 19:58:15 60° ENE 20:02:41 10° SSE
Cosmos 1953 2.3 19:55:20 10° S 19:59:18 85° ESE 20:03:20 10° NNE
Cosmos 407 Rocket 4.3 19:56:39 10° SSE 20:00:58 28° E 20:05:17 10° NE
Cosmos 2228 3.3 19:57:34 10° SSE 20:01:40 45° E 20:05:50 10° NNE
Cosmos 1606 Rocket 3.8 19:59:58 10° S 20:04:16 51° E 20:08:38 10° NNE
Cosmos 1908 3.7 20:01:14 10° SSE 20:04:50 39° E 20:08:29 10° NNE
STARLINK-1269 3.6 20:01:04 10° W 20:05:14 86° S 20:09:00 12° E
Cosmos 1610 Rocket 4.5 20:00:35 10° N 20:06:49 70° ENE 20:12:56 10° SSE
ATLAS CENTAUR R/B 3.5 20:04:21 10° NW 20:07:16 18° N 20:10:04 10° NE
ERBS 3.0 20:04:15 10° WNW 20:07:33 48° N 20:10:29 12° E
Cosmos 1818 3.9 20:03:04 10° SSW 20:08:13 45° ESE 20:13:24 10° NE
Cosmos 1470 4.4 20:05:36 10° SW 20:09:17 39° WNW 20:13:01 10° N
STARLINK-1200 3.6 20:06:03 10° W 20:10:13 86° S 20:13:47 14° E
ERS-1 Rocket 4.4 20:07:39 12° E 20:10:55 22° NE 20:14:40 10° N
Meteor 1-11 4.3 20:07:08 10° N 20:12:57 72° ENE 20:18:39 10° SSE
SL-08 RB Rocket 3.9 20:08:42 10° S 20:13:15 75° WSW 20:17:53 10° NNW
STARLINK-1192 3.6 20:11:01 10° W 20:15:11 86° S 20:18:33 15° E
APEX 4.5 20:08:49 10° NW 20:15:45 90° NE 20:21:10 12° SSE
Cosmos 1461 3.1 20:11:40 10° NW 20:16:11 81° NE 20:19:51 16° SE
Cosmos 1943 3.2 20:12:17 10° SSW 20:17:54 69° ESE 20:23:35 10° NE
STARLINK-1244 3.6 20:16:00 10° W 20:20:10 85° S 20:23:21 17° E
CZ-2C R/B 3.9 20:16:10 10° S 20:20:52 47° W 20:25:29 10° NNW
STARLINK-1138 3.6 20:20:58 10° W 20:25:07 84° S 20:28:06 18° E
CZ-4C R/B 3.7 20:23:50 10° NW 20:29:41 38° NNE 20:36:36 10° E
STARLINK-1143 3.6 20:25:55 10° W 20:30:05 84° S 20:32:52 20° E
H-2A R/B 3.4 20:25:28 10° SSW 20:30:19 38° W 20:35:04 10° NNW
STARLINK-1228 3.0 20:28:25 10° W 20:31:17 52° SSW 20:32:28 29° SE
Cosmos 1697 Rocket 4.2 20:26:47 10° NNW 20:31:25 25° NNE 20:35:27 12° E
Cosmos 1656 Rocket 4.5 20:29:32 10° NW 20:35:00 50° WSW 20:40:22 10° S
STARLINK-1241 3.6 20:30:57 10° W 20:35:06 83° S 20:37:41 22° E
CZ-2C R/B 2.6 20:32:13 10° NNE 20:37:22 59° ESE 20:42:28 10° S
Resurs 1-3 3.9 20:33:37 10° S 20:37:58 68° WSW 20:42:23 10° NNW
SPOT 5 4.0 20:36:47 19° E 20:38:32 24° ENE 20:42:00 10° N
Cosmos 1726 3.1 20:35:08 10° SSW 20:38:46 49° WNW 20:42:26 10° N
NOSS 3-4 (A) 4.1 20:33:15 10° NW 20:40:03 64° SW 20:46:22 15° SSE
STARLINK-1239 3.6 20:35:54 10° W 20:40:03 81° S 20:42:27 24° ESE
NOSS 3-4 (C) 4.1 20:33:22 10° NW 20:40:09 64° SW 20:46:27 15° SSE
Cosmos 2341 Rocket 4.0 20:34:46 10° N 20:41:10 70° ENE 20:46:40 14° SSE
SL-16 R/B 4.1 20:36:39 10° WSW 20:41:43 32° NW 20:46:48 10° NNE
STARLINK-1233 3.1 20:39:09 10° W 20:42:16 58° SSW 20:43:20 35° SE
STARLINK-1212 3.1 20:39:37 10° W 20:42:43 58° SSW 20:43:45 35° SE
Cosmos 2058 3.8 20:39:11 10° N 20:42:55 32° ENE 20:44:18 25° ESE
STARLINK-1105 3.1 20:40:04 10° W 20:43:10 57° SSW 20:44:12 35° SE
STARLINK-1206 3.1 20:40:33 10° W 20:43:38 57° SSW 20:44:37 36° SE
STARLINK-1247 3.1 20:41:00 10° W 20:44:05 57° SSW 20:45:03 36° SE
STARLINK-1227 3.1 20:41:24 10° W 20:44:30 57° SSW 20:45:29 36° SE
STARLINK-67 3.5 20:42:26 10° W 20:44:46 30° SSW 20:45:07 29° S
Aureole 1 Rocket 4.0 20:37:28 10° S 20:44:50 66° ESE 20:50:36 10° NNE
STARLINK-1218 3.1 20:41:55 10° W 20:44:59 56° SSW 20:45:55 37° SE
STARLINK-1240 3.5 20:40:54 10° W 20:45:04 80° S 20:47:15 27° ESE
Cosmos 2251 Rocket 4.5 20:40:07 10° SW 20:45:23 53° WNW 20:50:41 10° NNE
STARLINK-1226 3.1 20:42:20 10° W 20:45:25 56° SSW 20:46:21 37° SE
STARLINK-1254 3.1 20:42:46 10° W 20:45:51 56° SSW 20:46:47 37° SE
STARLINK-1215 3.1 20:43:15 10° W 20:46:20 55° SSW 20:47:13 38° SE
STARLINK-1231 3.1 20:43:42 10° W 20:46:47 55° SSW 20:47:39 38° SE
Cosmos 1763 Rocket 4.3 20:42:09 10° NNW 20:47:00 36° NE 20:49:35 23° ESE
STARLINK-1232 3.1 20:44:37 10° W 20:47:41 55° SSW 20:48:31 39° SE
STARLINK-1217 3.1 20:45:04 10° W 20:48:08 55° SSW 20:48:57 39° SE
STARLINK-1208 3.1 20:45:28 10° W 20:48:34 55° SSW 20:49:24 39° SE
STARLINK-1229 3.1 20:45:57 10° W 20:49:01 54° SSW 20:49:48 40° SSE
STARLINK-1234 3.3 20:46:15 10° W 20:49:11 45° SSW 20:49:51 37° SSE
STARLINK-1271 3.1 20:46:24 10° W 20:49:29 54° SSW 20:50:15 40° SSE
STARLINK-1270 3.1 20:46:53 10° W 20:49:56 54° SSW 20:50:42 40° SSE
STARLINK-1216 3.5 20:45:53 10° W 20:50:02 79° SSW 20:52:02 30° ESE
STARLINK-1154 3.1 20:47:18 10° W 20:50:22 53° SSW 20:51:06 41° SSE
STARLINK-1197 3.1 20:48:12 10° W 20:51:16 53° SSW 20:51:59 41° SSE
STARLINK-1189 3.2 20:48:40 10° W 20:51:43 53° SSW 20:52:25 41° SSE
Cosmos 1408 4.3 20:49:11 10° NNE 20:51:49 18° ENE 20:52:05 18° ENE
STARLINK-1209 3.4 20:49:00 10° W 20:51:52 42° SSW 20:52:23 37° S
NOSS 3-3 (A) 4.2 20:45:59 10° SW 20:52:04 80° NW 20:59:02 10° NE
NOSS 3-3 (C) 4.1 20:46:05 10° SW 20:52:09 81° NW 20:59:08 10° NE
STARLINK-1198 3.2 20:49:07 10° W 20:52:10 52° SSW 20:52:50 42° SSE
STARLINK-1188 3.2 20:49:34 10° W 20:52:37 52° SSW 20:53:17 42° SSE
STARLINK-1235 3.4 20:50:13 10° W 20:53:16 46° SSW 20:53:55 39° SSE
STARLINK-1187 3.3 20:50:37 10° W 20:53:42 49° SSW 20:54:21 40° SSE
DMSP B5D2-2 4.0 20:48:42 10° NNE 20:53:57 88° ESE 20:59:12 10° SSW
STARLINK-1199 3.2 20:51:30 10° W 20:54:35 51° SSW 20:55:12 43° SSE
RESURS DK-1 3.9 20:51:12 10° NNW 20:54:43 26° NE 20:56:27 20° ENE
STARLINK-1237 3.5 20:50:51 10° W 20:55:00 77° S 20:56:48 32° ESE
STARLINK-1191 3.2 20:51:58 10° W 20:55:02 51° SSW 20:55:38 43° SSE
STARLINK-1210 3.2 20:52:25 10° W 20:55:30 51° SSW 20:56:04 43° SSE
STARLINK-1221 3.2 20:52:52 10° W 20:55:56 51° SSW 20:56:30 43° SSE
Cosmos 1174 4.3 20:52:16 10° NW 20:56:00 52° NE 20:57:56 29° ESE
STARLINK-1219 3.2 20:53:18 10° W 20:56:23 50° SSW 20:56:56 43° SSE
Terra 3.0 20:55:02 23° E 20:56:43 28° ENE 21:00:46 10° N
STARLINK-1222 3.2 20:53:46 10° W 20:56:50 50° SSW 20:57:22 44° SSE
STARLINK-1211 3.2 20:54:13 10° W 20:57:17 50° SSW 20:57:48 44° SSE
STARLINK-1214 3.2 20:54:40 10° W 20:57:44 50° SSW 20:58:14 44° SSE
STARLINK-1245 3.2 20:55:09 10° W 20:58:11 49° SSW 20:58:39 44° SSE
STARLINK-1238 3.2 20:55:34 10° W 20:58:38 49° SSW 20:59:06 44° SSE
Cosmos 2218 Rocket 4.1 20:52:31 10° N 20:58:40 60° ENE 21:02:26 24° SSE
STARLINK-1205 3.2 20:56:30 10° W 20:59:32 48° SSW 20:59:57 45° S
Cosmos 1980 Rocket 3.8 20:55:11 10° NNW 20:59:40 23° NNE 21:03:10 14° ENE
Cosmos 2058 Rocket 3.1 20:55:14 10° S 20:59:45 89° W 21:04:18 10° N
STARLINK-1202 3.5 20:55:49 10° W 20:59:58 75° SSW 21:01:35 36° ESE
STARLINK-1204 3.2 20:56:58 10° W 21:00:00 48° SSW 21:00:23 45° S
MOS 1 Rocket 3.6 20:54:51 10° NNE 21:00:13 88° W 21:05:40 10° SSW
Cosmos 1892 3.4 20:57:32 10° N 21:01:10 36° ENE 21:01:53 33° E
Cosmos 1455 4.4 21:03:40 13° ENE 21:03:40 13° ENE 21:04:37 10° NE
Resurs 01 Rocket 2.2 20:59:15 13° S 21:03:03 55° W 21:07:25 10° NNW
Cosmos 1603 4.5 20:58:26 10° SW 21:03:57 54° NW 21:09:28 10° NNE
STARLINK-1203 3.6 21:00:12 10° W 21:04:24 72° SSW 21:05:52 38° ESE
Cosmos 1656 4.2 21:02:26 10° NNW 21:08:00 49° NE 21:10:37 29° ESE
STARLINK-1201 3.4 21:05:32 10° W 21:08:43 47° SSW 21:08:57 46° S
USA 234 3.5 21:02:43 10° ENE 21:08:55 43° SE 21:15:04 10° SSW
Iridium 4 Rocket 3.2 21:05:28 10° N 21:09:40 50° E 21:10:41 40° SE
STARLINK-1246 3.6 21:05:47 10° W 21:09:55 72° SSW 21:11:09 43° ESE
SL-4 R/B 2.5 21:06:58 10° SW 21:09:22 33° SSW 21:09:22 33° SSW
CARTOSAT-1 4.0 21:10:07 36° ESE 21:11:16 44° ENE 21:15:24 10° N
ATLAS 2AS CENTAUR R/B 3.7 21:05:04 10° NW 21:12:10 43° WSW 21:17:26 16° S
USA 245 4.4 21:08:38 24° SSE 21:12:18 89° ENE 21:18:45 10° NNW
Cosmos 1190 Rocket 3.9 21:07:36 10° SSW 21:12:54 81° ESE 21:18:14 10° NNE
Cosmos 1340 Rocket 3.1 21:09:11 10° SSW 21:13:14 69° WNW 21:17:17 10° N
Cosmos 1140 Rocket 3.3 21:08:48 10° SSW 21:13:58 74° ESE 21:19:09 10° NNE
Spot 2 Rocket 3.5 21:11:44 25° S 21:14:49 81° WSW 21:19:59 10° NNW
STARLINK-1224 3.6 21:10:45 10° W 21:14:53 69° SSW 21:15:55 47° SE
Cosmos 1825 3.6 21:13:28 10° NNE 21:16:32 24° ENE 21:16:32 24° ENE
Cosmos 2181 Rocket 3.9 21:12:15 18° S 21:16:53 66° E 21:23:01 10° NNE
SL-8 Rocket 4.0 21:12:52 10° N 21:19:13 89° WSW 21:23:20 23° S
STARLINK-1225 3.6 21:15:45 10° W 21:19:52 67° SSW 21:20:44 51° SE
ATLAS 5 CENTAUR R/B 1.6 21:17:23 10° SSW 21:21:32 55° SE 21:26:16 10° NE
Cosmos 841 Rocket 4.3 21:17:29 10° NNW 21:22:28 40° NE 21:24:13 31° E
Cosmos 864 Rocket 4.4 21:16:26 10° N 21:22:42 78° ENE 21:25:58 30° SSE
SL-24 R/B - RUBIN 2 4.2 21:18:52 10° SSW 21:24:35 72° SE 21:31:01 10° NE
STARLINK-1230 3.6 21:20:44 10° W 21:24:50 65° SSW 21:25:30 55° SSE
Abrixas rocket 4.1 21:22:37 10° WSW 21:23:55 18° SW 21:23:55 18° SW
Cosmos 1300 2.7 21:25:42 34° SSW 21:27:15 80° W 21:31:07 10° N
Cosmos 1570 Rocket 4.4 21:22:55 10° NNW 21:28:10 50° NE 21:29:51 37° ESE
In-Cosmos 22 Rocket 4.3 21:23:18 10° NNW 21:29:11 87° WSW 21:32:08 31° S
STARLINK-1243 3.6 21:25:41 10° W 21:29:47 63° SSW 21:30:16 57° SSE
Cosmos 2366 rocket 3.9 21:24:40 10° N 21:30:52 90° E 21:34:06 30° S
IGS 5A 3.5 21:29:44 44° S 21:31:00 77° WSW 21:35:13 10° NNW
Meteor 2-12 Rocket 4.4 21:24:54 10° N 21:31:03 75° ENE 21:33:43 36° SSE
Cosmos 921 Rocket 4.3 21:28:07 10° NW 21:31:55 34° WSW 21:34:01 21° SSW
Cosmos 468 Rocket 3.9 21:26:56 10° NNW 21:32:10 81° ENE 21:33:48 45° SE
Mayak 0.9 21:29:33 10° NE 21:30:35 14° ENE 21:30:35 14° ENE
Cosmos 1812 Rocket 3.4 21:33:49 56° SE 21:34:30 66° E 21:38:50 10° NNE
STARLINK-1236 3.6 21:30:41 10° W 21:34:47 60° SSW 21:35:04 58° S
CZ-4B DEB 4.4 21:35:42 73° SW 21:35:50 75° WSW 21:39:14 10° NNW
COSMOS 2455 3.5 21:31:07 10° NW 21:36:52 47° WSW 21:39:49 27° S
ASTEX 1 4.3 21:39:12 31° E 21:39:40 31° ENE 21:44:02 10° N
Cosmos 676 Rocket 3.9 21:36:26 13° SSW 21:41:14 85° ESE 21:46:31 10° NNE
Cosmos 1356 Rocket 4.5 21:43:19 32° ENE 21:43:19 32° ENE 21:46:20 10° NNE
Cosmos 407 Rocket 4.1 21:37:37 10° SW 21:42:40 56° WNW 21:47:44 10° NNE
ERBS 2.8 21:40:38 10° WNW 21:43:27 54° W 21:43:27 54° W
COSMOS 2406 4.2 21:45:30 29° E 21:45:30 29° E 21:49:24 10° NE
STARLINK-1269 3.8 21:40:40 10° W 21:44:39 56° SSW 21:44:39 56° SSW
Cosmos 1833 Rocket 4.4 21:47:50 17° ENE 21:47:50 17° ENE 21:49:50 10° NE
ATLAS CENTAUR R/B 2.1 21:43:25 10° NW 21:47:12 38° NNE 21:47:36 37° NE
ERS-1 Rocket 3.0 21:47:39 45° S 21:49:12 79° WSW 21:54:16 10° NNW
STARLINK-1200 3.9 21:45:38 10° W 21:49:26 52° SW 21:49:26 52° SW
Cosmos 1818 4.4 21:46:28 10° WSW 21:51:47 52° NW 21:57:09 10° NE
Landsat 7 4.4 21:50:30 33° SSW 21:52:19 52° W 21:57:00 10° NNW
STARLINK-1192 4.1 21:50:37 10° W 21:54:12 48° SW 21:54:12 48° SW
Meteor 2-1 Rocket 4.2 21:53:33 39° S 21:55:53 79° E 22:01:52 10° NNE
SPOT 1/Viking Rocket 4.0 21:55:08 34° SSW 21:57:11 57° W 22:02:22 10° NNW
STARLINK-1244 4.3 21:55:36 10° W 21:58:59 44° SW 21:58:59 44° SW
Cosmos 1408 Rocket 4.2 21:58:32 10° N 22:02:35 42° ENE 22:02:35 42° ENE
STARLINK-1138 4.4 22:00:34 10° W 22:03:45 40° WSW 22:03:45 40° WSW
Cosmos 2369 3.8 21:58:55 10° NNW 22:04:35 68° NE 22:05:45 53° ESE
Cosmos 2208 Rocket 3.9 22:00:12 10° NNW 22:05:25 76° ENE 22:06:09 64° ESE
Cosmos 1954 Rocket 4.2 22:01:06 13° SW 22:05:48 68° WNW 22:11:01 10° NNE
Cosmos 1741 Rocket 4.0 22:07:29 59° ESE 22:07:29 59° ESE 22:12:45 10° NNE
Cosmos 2151 2.9 22:04:42 10° NNW 22:08:48 83° NW 22:08:48 83° NW
Cosmos 2239 Rocket 4.5 22:03:43 10° N 22:09:57 70° ENE 22:11:22 53° SE
Cosmos 489 Rocket 4.4 22:05:10 10° NNW 22:11:25 83° WSW 22:13:01 53° SSE
Meteor 2-10 Rocket 3.5 22:12:36 64° ESE 22:12:49 65° E 22:18:11 10° NNE
Cosmos 1821 Rocket 4.0 22:06:30 10° N 22:12:54 81° E 22:14:33 53° SSE
Cosmos 1697 Rocket 2.6 22:10:34 10° NNW 22:16:17 80° ENE 22:17:11 63° SE
SPOT 5 3.0 22:16:00 50° WSW 22:16:23 52° W 22:20:38 10° NNW
CZ-2C R/B 4.5 22:13:01 10° N 22:17:22 28° WNW 22:21:43 10° WSW
CZ-4C R/B 3.0 22:12:33 10° NW 22:19:19 70° NE 22:22:18 40° ESE
Cosmos 2058 4.3 22:16:10 10° NNW 22:19:48 31° W 22:20:31 29° WSW
Cosmos 1934 Rocket 4.0 22:15:05 10° N 22:21:21 62° ENE 22:22:23 54° ESE
Meteor 2-3 Rocket 3.7 22:20:22 10° N 22:26:09 67° ENE 22:26:44 62° ESE
Cosmos 1408 3.7 22:23:35 10° NNW 22:26:26 41° WNW 22:26:26 41° WNW
Cosmos 1763 Rocket 4.0 22:23:59 10° NW 22:28:58 46° WSW 22:29:37 44° SW
SL-16 R/B 3.6 22:25:26 10° NNW 22:30:25 30° NE 22:32:20 25° ENE
Cosmos 1605 Rocket 4.2 22:25:53 10° N 22:31:51 50° ENE 22:32:34 48° E
Cosmos 2221 4.4 22:33:51 22° NE 22:33:51 22° NE 22:35:52 10° NNE
Cosmos 1814 Rocket 3.9 22:27:22 10° NNW 22:32:45 80° WSW 22:33:05 76° SSW
RESURS DK-1 3.1 22:28:59 10° NW 22:32:20 50° WNW 22:32:20 50° WNW
Cosmos-2242 3.3 22:33:51 66° NNW 22:33:51 66° NNW 22:37:43 10° N
Terra 2.3 22:33:54 50° WSW 22:34:15 51° W 22:38:55 10° NNW
Cosmos 2360 Rocket 4.2 22:32:05 10° NNW 22:36:19 21° NNE 22:39:34 14° ENE
Cosmos 1455 3.3 22:38:33 44° NNW 22:38:33 44° NNW 22:41:24 10° N
Cosmos 2322 Rocket 3.6 22:35:21 10° NNW 22:40:18 30° NE 22:42:08 25° ENE
Cosmos 540 Rocket 3.6 22:39:06 10° NNW 22:44:14 65° WSW 22:44:14 65° WSW
Cosmos 1980 Rocket 2.1 22:38:57 10° NNW 22:44:36 75° NE 22:44:56 73° E
Okean 3 Rocket 4.4 22:41:36 10° NNW 22:45:38 44° W 22:45:38 44° W
ALOS 2 3.8 22:51:07 35° NE 22:51:07 35° NE 22:54:27 10° N
Cosmos 1656 4.4 22:46:19 10° NW 22:51:36 40° WSW 22:52:03 39° WSW
Cosmos 1825 3.8 22:48:44 10° NNW 22:51:21 31° WNW 22:51:21 31° WNW
USA 234 3.1 22:45:47 10° ENE 22:52:22 90° NNW 22:58:56 10° WSW
Cosmos 1850 Rocket 4.2 22:53:20 57° WSW 22:54:05 65° WNW 22:59:16 10° NNE
Cosmos 2360 4.1 22:52:48 10° NW 22:58:30 74° WSW 22:58:32 74° WSW
Cosmos 2084 4.4 22:57:58 10° NW 23:01:44 48° N 23:01:44 48° N
Cosmos 841 Rocket 4.2 22:59:27 10° NW 23:04:18 42° WSW 23:04:18 42° WSW
Spot 4 4.1 23:05:09 68° NNW 23:05:09 68° NNW 23:09:22 10° NNW
ATLAS 5 CENTAUR R/B 2.9 23:02:07 10° W 23:06:21 41° NNW 23:11:15 10° NE
Cosmos 2278 3.7 23:02:00 10° NW 23:07:28 67° WSW 23:07:28 67° WSW
BREEZE M DEB (TANK) 4.3 23:02:52 10° WSW 23:08:11 68° SSE 23:29:06 10° E
Mayak -0.2 23:04:09 10° N 23:07:09 44° N 23:07:09 44° N
Cosmos 1500 Rocket 4.4 23:05:35 10° NNW 23:08:45 48° N 23:08:45 48° N
Cosmos 2082 Rocket 2.9 23:15:18 42° ENE 23:15:18 42° ENE 23:19:21 10° NE
Cosmos 2344 4.2 23:05:01 10° NW 23:14:10 83° SW 23:18:38 45° SE
ASTEX 1 4.2 23:18:42 44° W 23:18:42 44° W 23:23:18 10° NNW
Meteor 1-27 4.2 23:19:20 80° ENE 23:19:20 80° ENE 23:24:59 10° NNE
ATLAS CENTAUR R/B 3.6 23:22:28 10° NW 23:23:47 19° WNW 23:23:47 19° WNW
COSMOS 2406 3.6 23:27:30 53° W 23:28:27 60° NW 23:34:09 10° NNE
Cosmos 1833 Rocket 2.7 23:29:28 77° NNE 23:29:28 77° NNE 23:34:44 10° NNE
Cosmos 2219 Rocket 4.3 23:31:54 10° NNW 23:36:12 22° NNE 23:40:10 11° ENE
Thor Agena Rocket 4.0 23:38:07 10° N 23:42:56 53° WNW 23:42:56 53° WNW
Cosmos 1459 Rocket 4.0 23:41:12 10° N 23:47:35 68° ENE 23:47:45 68° E
NOSS 2-1 (C) 4.3 23:44:24 10° NW 23:48:43 66° NNE 23:48:43 66° NNE
Cosmos 1153 Rocket 4.4 23:44:58 10° NNW 23:51:16 76° W 23:51:20 76° WSW
Cosmos 1727 Rocket 3.9 23:51:23 80° E 23:51:23 80° E 23:57:40 10° NNE
MOS 1-B Rocket 4.4 23:47:00 10° NNE 23:52:40 53° E 23:52:40 53° E
NOSS 2-1 (D) 4.3 23:48:36 10° NW 23:52:52 67° N 23:52:52 67° N
